Location: Peach Mountain Observatory
(42.3967°N, 83.9367°W)
Time: 11:30:35
(UTC-05:00)

S-56A Canister/Altair - Pass Details

Date: 27 January 2020
Orbit: 633 x 2499 km, 38.9° (Epoch: 17 February)

Event Time Altitude Azimuth Distance (km) Brightness Sun altitude
Rises 22:30:20 0° 267° (W) 3,727 11.5 -52.2°
Enters shadow 22:31:41 - 266° (W) 3,201 11.1 -52.4°
Reaches altitude 10° 22:33:22 10° 263° (W) 2,540 - -52.6°
Maximum altitude 22:38:55 58° 186° (S) 829 - -53.5°
Drops below altitude 10° 22:43:21 10° 107° (ESE) 2,033 - -54.2°
Sets 22:45:32 0° 103° (ESE) 2,915 - -54.6°
